| time (UTC) | temp C | wind direction | speed KPH | gust KPH | rain 1hr cm | rain 24hr cm | rain mn cm | humidity % | barometer mb |
| 20260504001540 | 22 | 5 | 11.3 | 30.6 | 0.00 | 0.00 | 0.00 | 45 | 1012.5 |
| 20260504000043 | 22 | 325 | 12.9 | 22.5 | 0.00 | 0.00 | 0.00 | 47 | 1012.6 |
| 20260503234539 | 22 | 335 | 9.7 | 24.1 | 0.00 | 0.00 | 0.00 | 49 | 1012.7 |
| 20260503233042 | 21 | 274 | 6.4 | 25.7 | 0.00 | 0.00 | 0.00 | 52 | 1012.8 |
| 20260503231537 | 21 | 319 | 8.0 | 27.4 | 0.00 | 0.00 | 0.00 | 54 | 1013.0 |
| 20260503230038 | 21 | 288 | 9.7 | 22.5 | 0.00 | 0.00 | 0.00 | 53 | 1013.3 |
| 20260503224536 | 20 | 323 | 12.9 | 27.4 | 0.00 | 0.00 | 0.00 | 54 | 1013.4 |
| 20260503223044 | 21 | 190 | 8.0 | 27.4 | 0.00 | 0.00 | 0.00 | 54 | 1013.7 |
| 20260503221538 | 21 | 355 | 9.7 | 25.7 | 0.00 | 0.00 | 0.00 | 52 | 1013.9 |
| 20260503220039 | 21 | 313 | 14.5 | 29.0 | 0.00 | 0.00 | 0.00 | 53 | 1014.0 |
| 20260503214536 | 20 | 315 | 14.5 | 27.4 | 0.00 | 0.00 | 0.00 | 51 | 1014.1 |
| 20260503213037 | 20 | 331 | 16.1 | 29.0 | 0.00 | 0.00 | 0.00 | 58 | 1014.2 |
| 20260503211544 | 20 | 333 | 11.3 | 22.5 | 0.00 | 0.00 | 0.00 | 61 | 1014.1 |
| 20260503210041 | 19 | 321 | 9.7 | 20.9 | 0.00 | 0.00 | 0.00 | 62 | 1014.3 |
| 20260503204537 | 19 | 355 | 8.0 | 20.9 | 0.00 | 0.00 | 0.00 | 63 | 1014.4 |
| 20260503203041 | 19 | 340 | 11.3 | 20.9 | 0.00 | 0.00 | 0.00 | 63 | 1014.6 |
| 20260503201538 | 19 | 319 | 8.0 | 19.3 | 0.00 | 0.00 | 0.00 | 64 | 1014.7 |
| 20260503200037 | 20 | 302 | 4.8 | 17.7 | 0.00 | 0.00 | 0.00 | 62 | 1014.9 |
| 20260503194546 | 19 | 312 | 8.0 | 17.7 | 0.00 | 0.00 | 0.00 | 64 | 1015.0 |
| 20260503193046 | 18 | 5 | 4.8 | 14.5 | 0.00 | 0.00 | 0.00 | 68 | 1015.1 |
| 20260503191539 | 17 | 344 | 4.8 | 12.9 | 0.00 | 0.00 | 0.00 | 70 | 1015.4 |
| 20260503190037 | 17 | 352 | 4.8 | 17.7 | 0.00 | 0.00 | 0.00 | 71 | 1015.5 |
| 20260503184539 | 17 | 317 | 6.4 | 14.5 | 0.00 | 0.00 | 0.00 | 72 | 1015.6 |
| 20260503183037 | 16 | 350 | 8.0 | 14.5 | 0.00 | 0.00 | 0.00 | 74 | 1015.6 |
| 20260503181542 | 16 | 355 | 6.4 | 20.9 | 0.00 | 0.00 | 0.00 | 75 | 1015.7 |
| 20260503180051 | 16 | 329 | 9.7 | 19.3 | 0.00 | 0.00 | 0.00 | 74 | 1015.7 |
| 20260503174542 | 16 | 355 | 8.0 | 17.7 | 0.00 | 0.00 | 0.00 | 73 | 1015.8 |
| 20260503173046 | 16 | 322 | 8.0 | 17.7 | 0.00 | 0.00 | 0.00 | 72 | 1015.7 |
| 20260503171537 | 16 | 355 | 6.4 | 19.3 | 0.00 | 0.00 | 0.00 | 73 | 1015.7 |
| 20260503081541 | 16 | 0 | 0.0 | 6.4 | 0.00 | 0.00 | 0.00 | 56 | 1016.2 |
| 20260503071543 | 18 | 317 | 1.6 | 12.9 | 0.00 | 0.00 | 0.00 | 52 | 1016.1 |
| 20260503060106 | 20 | 346 | 9.7 | 19.3 | 0.00 | 0.00 | 0.00 | 45 | 1016.2 |
| 20260503054539 | 20 | 42 | 9.7 | 22.5 | 0.00 | 0.00 | 0.00 | 45 | 1016.1 |
| 20260503053038 | 20 | 309 | 8.0 | 20.9 | 0.00 | 0.00 | 0.00 | 46 | 1016.2 |
| 20260503051540 | 20 | 61 | 9.7 | 22.5 | 0.00 | 0.00 | 0.00 | 46 | 1016.2 |
| 20260503050043 | 20 | 11 | 8.0 | 19.3 | 0.00 | 0.00 | 0.00 | 46 | 1016.2 |
| 20260503044537 | 20 | 344 | 8.0 | 24.1 | 0.00 | 0.00 | 0.00 | 47 | 1016.1 |
| 20260503043047 | 20 | 360 | 9.7 | 27.4 | 0.00 | 0.00 | 0.00 | 47 | 1015.8 |
| 20260503041538 | 20 | 323 | 11.3 | 27.4 | 0.00 | 0.00 | 0.00 | 49 | 1015.7 |
| 20260503040055 | 20 | 25 | 12.9 | 27.4 | 0.00 | 0.00 | 0.00 | 50 | 1015.5 |
| 20260503034544 | 20 | 344 | 12.9 | 29.0 | 0.00 | 0.00 | 0.00 | 52 | 1015.5 |
| 20260503033038 | 18 | 5 | 8.0 | 19.3 | 0.00 | 0.00 | 0.00 | 56 | 1015.2 |
| 20260503031537 | 19 | 355 | 6.4 | 14.5 | 0.00 | 0.00 | 0.00 | 58 | 1015.3 |
| 20260503030037 | 19 | 12 | 4.8 | 14.5 | 0.00 | 0.00 | 0.00 | 58 | 1015.2 |
| 20260503024538 | 20 | 333 | 3.2 | 17.7 | 0.00 | 0.00 | 0.00 | 58 | 1015.1 |
| 20260503023052 | 20 | 5 | 4.8 | 14.5 | 0.00 | 0.00 | 0.00 | 58 | 1015.1 |
| 20260503021550 | 19 | 45 | 4.8 | 16.1 | 0.00 | 0.00 | 0.00 | 61 | 1015.1 |
| 20260503020047 | 20 | 355 | 4.8 | 16.1 | 0.00 | 0.00 | 0.00 | 59 | 1015.2 |
| 20260503014537 | 20 | 326 | 11.3 | 29.0 | 0.00 | 0.00 | 0.00 | 59 | 1015.4 |
| 20260503013037 | 20 | 5 | 12.9 | 25.7 | 0.00 | 0.00 | 0.00 | 57 | 1015.3 |
| 20260503011538 | 21 | 332 | 3.2 | 22.5 | 0.00 | 0.00 | 0.00 | 58 | 1015.5 |
| 20260503010036 | 20 | 352 | 6.4 | 19.3 | 0.00 | 0.00 | 0.00 | 57 | 1015.4 |
| 20260503004610 | 20 | 39 | 6.4 | 20.9 | 0.00 | 0.00 | 0.00 | 57 | 1015.4 |
| 20260503003056 | 20 | 32 | 4.8 | 20.9 | 0.00 | 0.00 | 0.00 | 60 | 1015.4 |